WXM80 ListenWXM80 Stop

You find our weather info also at:

UK Metoffice

WeatherCloud

Weather Underground

Northeastern Weather Network

AWEKAS

Citizen Weather Observer Program (CWOP)

HAMweather, WeatherForYou, PWS Weather


Weather Underground History page Text

Daily Summary for October 11, 2017 Units:  Both    English   Metric
« Previous Day
Next Day »
Daily Weekly Monthly Yearly Custom
  High: Low: Average:
Temperature: 73.8 °F /  23.2 °C 59.9 °F /  15.5 °C 65.8 °F /  18.8 °C
Dew Point: 65.8 °F /  18.8 °C 54.9 °F /  12.7 °C 61.6 °F /  16.4 °C
Humidity: 97 % 73 % 87 %
Wind Speed: 5.6 mph /  9 km/h - 1.5 mph /  2.4 km/h
Wind Gust: 10.4 mph /  16.7 km/h - -
Wind:- - East
Pressure: 30.16 in /  1021.2 hPa 29.59 in /  1001.9 hPa -
Precipitation: 0.04 in /  1.02 mm    
Historical Graphs
 
 
Tabular Data for October 11, 2017
Time Temperature Dew Point Pressure Wind Wind Speed Wind Gust Humidity Rainfall Rate (Hourly)
00:04 63.0 °F /  17.2 °C 60.9 °F /  16.1 °C 29.87 in /  1011.4 hPa Calm     93 % 0.00 in /  0 mm
00:09 62.9 °F /  17.2 °C 60.8 °F /  16 °C 29.96 in /  1014.4 hPa Calm     93 % 0.00 in /  0 mm
00:14 62.9 °F /  17.2 °C 61.1 °F /  16.2 °C 29.92 in /  1013.1 hPa Calm     94 % 0.00 in /  0 mm
00:19 62.9 °F /  17.2 °C 61.1 °F /  16.2 °C 29.96 in /  1014.4 hPa Calm     94 % 0.00 in /  0 mm
00:25 62.8 °F /  17.1 °C 61.0 °F /  16.1 °C 29.96 in /  1014.4 hPa Calm     94 % 0.00 in /  0 mm
00:30 62.8 °F /  17.1 °C 61.0 °F /  16.1 °C 29.95 in /  1014.1 hPa Calm     94 % 0.00 in /  0 mm
00:35 62.7 °F /  17.1 °C 60.9 °F /  16.1 °C 29.91 in /  1012.8 hPa Calm   1.2 mph /  1.9 km/h 94 % 0.00 in /  0 mm
00:40 62.7 °F /  17.1 °C 60.9 °F /  16.1 °C 29.91 in /  1012.8 hPa Calm     94 % 0.00 in /  0 mm
00:45 62.7 °F /  17.1 °C 60.9 °F /  16.1 °C 29.85 in /  1010.7 hPa Calm     94 % 0.00 in /  0 mm
00:50 62.6 °F /  17 °C 60.8 °F /  16 °C 29.92 in /  1013.1 hPa Calm     94 % 0.00 in /  0 mm
00:55 62.6 °F /  17 °C 60.8 °F /  16 °C 29.90 in /  1012.4 hPa Calm     94 % 0.00 in /  0 mm
01:00 62.5 °F /  16.9 °C 60.7 °F /  15.9 °C 29.89 in /  1012.1 hPa Calm     94 % 0.00 in /  0 mm
01:05 62.5 °F /  16.9 °C 60.7 °F /  15.9 °C 29.86 in /  1011.1 hPa Calm     94 % 0.00 in /  0 mm
01:15 62.3 °F /  16.8 °C 60.6 °F /  15.9 °C 29.85 in /  1010.7 hPa Calm     94 % 0.00 in /  0 mm
01:20 62.3 °F /  16.8 °C 60.6 °F /  15.9 °C 29.79 in /  1008.7 hPa Calm     94 % 0.00 in /  0 mm
01:26 62.2 °F /  16.8 °C 60.5 °F /  15.8 °C 29.81 in /  1009.4 hPa Calm     94 % 0.00 in /  0 mm
01:31 62.1 °F /  16.7 °C 60.4 °F /  15.8 °C 30.05 in /  1017.5 hPa Calm     94 % 0.00 in /  0 mm
01:36 62.0 °F /  16.7 °C 60.3 °F /  15.7 °C 30.05 in /  1017.5 hPa Calm     94 % 0.00 in /  0 mm
01:41 61.9 °F /  16.6 °C 60.2 °F /  15.7 °C 29.90 in /  1012.4 hPa Calm     94 % 0.00 in /  0 mm
01:46 61.8 °F /  16.6 °C 60.1 °F /  15.6 °C 29.88 in /  1011.7 hPa Calm     94 % 0.00 in /  0 mm
01:51 61.8 °F /  16.6 °C 60.1 °F /  15.6 °C 29.92 in /  1013.1 hPa Calm     94 % 0.00 in /  0 mm
01:56 61.7 °F /  16.5 °C 60.0 °F /  15.6 °C 29.94 in /  1013.8 hPa Calm     94 % 0.00 in /  0 mm
02:01 61.6 °F /  16.4 °C 59.9 °F /  15.5 °C 29.94 in /  1013.8 hPa Calm     94 % 0.00 in /  0 mm
02:06 61.6 °F /  16.4 °C 59.9 °F /  15.5 °C 29.97 in /  1014.8 hPa Calm     94 % 0.00 in /  0 mm
02:11 61.6 °F /  16.4 °C 60.2 °F /  15.7 °C 29.82 in /  1009.7 hPa Calm     95 % 0.00 in /  0 mm
02:16 61.5 °F /  16.4 °C 60.1 °F /  15.6 °C 29.89 in /  1012.1 hPa Calm     95 % 0.00 in /  0 mm
02:22 61.5 °F /  16.4 °C 60.1 °F /  15.6 °C 29.91 in /  1012.8 hPa Calm     95 % 0.00 in /  0 mm
02:27 61.5 °F /  16.4 °C 60.1 °F /  15.6 °C 29.83 in /  1010 hPa Calm     95 % 0.00 in /  0 mm
02:32 61.4 °F /  16.3 °C 60.0 °F /  15.6 °C 29.87 in /  1011.4 hPa Calm     95 % 0.00 in /  0 mm
02:37 61.3 °F /  16.3 °C 59.9 °F /  15.5 °C 29.80 in /  1009 hPa Calm   1.2 mph /  1.9 km/h 95 % 0.00 in /  0 mm
02:42 61.3 °F /  16.3 °C 59.9 °F /  15.5 °C 29.80 in /  1009 hPa Calm     95 % 0.00 in /  0 mm
02:47 61.2 °F /  16.2 °C 59.8 °F /  15.4 °C 29.94 in /  1013.8 hPa Calm     95 % 0.00 in /  0 mm
02:52 61.1 °F /  16.2 °C 59.7 °F /  15.4 °C 29.94 in /  1013.8 hPa Calm   1.2 mph /  1.9 km/h 95 % 0.00 in /  0 mm
02:57 61.0 °F /  16.1 °C 59.6 °F /  15.3 °C 29.92 in /  1013.1 hPa Calm     95 % 0.00 in /  0 mm
03:02 61.0 °F /  16.1 °C 59.6 °F /  15.3 °C 29.99 in /  1015.5 hPa Calm     95 % 0.00 in /  0 mm
03:07 60.9 °F /  16.1 °C 59.5 °F /  15.3 °C 30.02 in /  1016.5 hPa Calm     95 % 0.00 in /  0 mm
03:12 60.8 °F /  16 °C 59.4 °F /  15.2 °C 29.90 in /  1012.4 hPa Calm     95 % 0.00 in /  0 mm
03:17 60.7 °F /  15.9 °C 59.3 °F /  15.2 °C 29.90 in /  1012.4 hPa Calm     95 % 0.00 in /  0 mm
03:22 60.7 °F /  15.9 °C 59.3 °F /  15.2 °C 29.94 in /  1013.8 hPa Calm     95 % 0.00 in /  0 mm
03:27 60.6 °F /  15.9 °C 59.2 °F /  15.1 °C 30.00 in /  1015.8 hPa West 0.3 mph /  0.5 km/h 1.2 mph /  1.9 km/h 95 % 0.00 in /  0 mm
03:32 60.5 °F /  15.8 °C 59.1 °F /  15.1 °C 29.94 in /  1013.8 hPa Calm     95 % 0.00 in /  0 mm
03:38 60.4 °F /  15.8 °C 59.0 °F /  15 °C 29.92 in /  1013.1 hPa Calm     95 % 0.00 in /  0 mm
03:43 60.4 °F /  15.8 °C 59.0 °F /  15 °C 29.92 in /  1013.1 hPa Calm     95 % 0.00 in /  0 mm
03:48 60.3 °F /  15.7 °C 58.9 °F /  14.9 °C 30.01 in /  1016.1 hPa Calm     95 % 0.00 in /  0 mm
03:53 60.2 °F /  15.7 °C 58.8 °F /  14.9 °C 29.95 in /  1014.1 hPa Calm     95 % 0.00 in /  0 mm
03:58 60.1 °F /  15.6 °C 58.7 °F /  14.8 °C 29.90 in /  1012.4 hPa Calm     95 % 0.00 in /  0 mm
04:03 60.0 °F /  15.6 °C 58.6 °F /  14.8 °C 29.94 in /  1013.8 hPa Calm     95 % 0.00 in /  0 mm
04:08 60.0 °F /  15.6 °C 58.6 °F /  14.8 °C 29.88 in /  1011.7 hPa Calm     95 % 0.00 in /  0 mm
04:13 60.0 °F /  15.6 °C 58.6 °F /  14.8 °C 29.88 in /  1011.7 hPa Calm   1.2 mph /  1.9 km/h 95 % 0.00 in /  0 mm
04:18 59.9 °F /  15.5 °C 58.5 °F /  14.7 °C 30.02 in /  1016.5 hPa Calm     95 % 0.00 in /  0 mm
04:23 59.9 °F /  15.5 °C 58.5 °F /  14.7 °C 29.90 in /  1012.4 hPa Calm     95 % 0.00 in /  0 mm
04:28 59.9 °F /  15.5 °C 58.5 °F /  14.7 °C 29.97 in /  1014.8 hPa Calm     95 % 0.00 in /  0 mm
04:29 59.9 °F /  15.5 °C 58.5 °F /  14.7 °C 29.98 in /  1015.1 hPa Calm     95 % 0.00 in /  0 mm
04:39 59.9 °F /  15.5 °C 58.8 °F /  14.9 °C 29.94 in /  1013.8 hPa Calm     96 % 0.00 in /  0 mm
04:44 60.0 °F /  15.6 °C 58.9 °F /  14.9 °C 29.80 in /  1009 hPa Calm     96 % 0.00 in /  0 mm
04:49 60.0 °F /  15.6 °C 58.9 °F /  14.9 °C 30.08 in /  1018.5 hPa Calm     96 % 0.00 in /  0 mm
04:54 60.0 °F /  15.6 °C 58.9 °F /  14.9 °C 30.04 in /  1017.2 hPa Calm     96 % 0.00 in /  0 mm
04:59 60.0 °F /  15.6 °C 58.9 °F /  14.9 °C 30.04 in /  1017.2 hPa Calm     96 % 0.00 in /  0 mm
05:01 60.0 °F /  15.6 °C 58.9 °F /  14.9 °C 30.05 in /  1017.5 hPa Calm     96 % 0.00 in /  0 mm
05:06 60.0 °F /  15.6 °C 58.9 °F /  14.9 °C 29.94 in /  1013.8 hPa Calm     96 % 0.00 in /  0 mm
05:11 60.1 °F /  15.6 °C 59.0 °F /  15 °C 29.92 in /  1013.1 hPa Calm     96 % 0.00 in /  0 mm
05:16 60.1 °F /  15.6 °C 59.0 °F /  15 °C 29.93 in /  1013.4 hPa Calm     96 % 0.00 in /  0 mm
05:21 60.2 °F /  15.7 °C 59.1 °F /  15.1 °C 29.99 in /  1015.5 hPa Calm     96 % 0.00 in /  0 mm
05:26 60.3 °F /  15.7 °C 59.2 °F /  15.1 °C 29.95 in /  1014.1 hPa Calm     96 % 0.00 in /  0 mm
05:31 60.4 °F /  15.8 °C 59.3 °F /  15.2 °C 29.96 in /  1014.4 hPa Calm     96 % 0.00 in /  0 mm
05:41 60.5 °F /  15.8 °C 59.4 °F /  15.2 °C 29.99 in /  1015.5 hPa Calm     96 % 0.00 in /  0 mm
05:46 60.5 °F /  15.8 °C 59.6 °F /  15.3 °C 29.83 in /  1010 hPa Calm     97 % 0.00 in /  0 mm
05:51 60.5 °F /  15.8 °C 59.6 °F /  15.3 °C 30.01 in /  1016.1 hPa Calm     97 % 0.00 in /  0 mm
05:56 60.5 °F /  15.8 °C 59.6 °F /  15.3 °C 29.91 in /  1012.8 hPa Calm     97 % 0.00 in /  0 mm
06:01 60.6 °F /  15.9 °C 59.7 °F /  15.4 °C 30.03 in /  1016.8 hPa Calm     97 % 0.00 in /  0 mm
06:06 60.6 °F /  15.9 °C 59.7 °F /  15.4 °C 30.00 in /  1015.8 hPa Calm     97 % 0.00 in /  0 mm
06:11 60.7 °F /  15.9 °C 59.8 °F /  15.4 °C 29.88 in /  1011.7 hPa Calm     97 % 0.00 in /  0 mm
06:16 60.8 °F /  16 °C 59.9 °F /  15.5 °C 29.86 in /  1011.1 hPa Calm     97 % 0.00 in /  0 mm
06:21 61.0 °F /  16.1 °C 60.1 °F /  15.6 °C 29.92 in /  1013.1 hPa NE 0.4 mph /  0.6 km/h 3.5 mph /  5.6 km/h 97 % 0.00 in /  0 mm
06:27 61.1 °F /  16.2 °C 60.2 °F /  15.7 °C 29.87 in /  1011.4 hPa ENE 1.6 mph /  2.6 km/h 2.0 mph /  3.2 km/h 97 % 0.00 in /  0 mm
06:32 61.1 °F /  16.2 °C 60.2 °F /  15.7 °C 29.84 in /  1010.4 hPa Calm   1.0 mph /  1.6 km/h 97 % 0.00 in /  0 mm
06:37 61.2 °F /  16.2 °C 60.3 °F /  15.7 °C 29.92 in /  1013.1 hPa ENE 1.5 mph /  2.4 km/h 3.5 mph /  5.6 km/h 97 % 0.00 in /  0 mm
06:42 61.3 °F /  16.3 °C 60.4 °F /  15.8 °C 29.91 in /  1012.8 hPa ENE 2.0 mph /  3.2 km/h 3.5 mph /  5.6 km/h 97 % 0.00 in /  0 mm
06:47 61.3 °F /  16.3 °C 60.4 °F /  15.8 °C 29.90 in /  1012.4 hPa ENE 0.2 mph /  0.3 km/h 1.2 mph /  1.9 km/h 97 % 0.00 in /  0 mm
06:52 61.4 °F /  16.3 °C 60.5 °F /  15.8 °C 29.93 in /  1013.4 hPa ENE 0.1 mph /  0.2 km/h 1.2 mph /  1.9 km/h 97 % 0.00 in /  0 mm
06:57 61.6 °F /  16.4 °C 60.7 °F /  15.9 °C 29.95 in /  1014.1 hPa East 1.9 mph /  3.1 km/h 3.5 mph /  5.6 km/h 97 % 0.00 in /  0 mm
07:02 61.7 °F /  16.5 °C 60.8 °F /  16 °C 29.98 in /  1015.1 hPa ENE 1.6 mph /  2.6 km/h 2.3 mph /  3.7 km/h 97 % 0.00 in /  0 mm
07:07 61.8 °F /  16.6 °C 60.9 °F /  16.1 °C 30.00 in /  1015.8 hPa ENE 3.0 mph /  4.8 km/h 4.6 mph /  7.4 km/h 97 % 0.00 in /  0 mm
07:12 61.9 °F /  16.6 °C 61.0 °F /  16.1 °C 29.99 in /  1015.5 hPa NE 2.0 mph /  3.2 km/h 4.6 mph /  7.4 km/h 97 % 0.00 in /  0 mm
07:17 62.0 °F /  16.7 °C 61.1 °F /  16.2 °C 29.99 in /  1015.5 hPa NE 0.5 mph /  0.8 km/h 3.5 mph /  5.6 km/h 97 % 0.00 in /  0 mm
07:22 62.1 °F /  16.7 °C 60.9 °F /  16.1 °C 29.93 in /  1013.4 hPa NE 0.8 mph /  1.3 km/h 2.3 mph /  3.7 km/h 96 % 0.00 in /  0 mm
07:23 62.1 °F /  16.7 °C 60.9 °F /  16.1 °C 29.91 in /  1012.8 hPa NE 0.8 mph /  1.3 km/h 2.3 mph /  3.7 km/h 96 % 0.00 in /  0 mm
07:28 62.2 °F /  16.8 °C 61.0 °F /  16.1 °C 29.91 in /  1012.8 hPa ENE 2.1 mph /  3.4 km/h 3.5 mph /  5.6 km/h 96 % 0.00 in /  0 mm
07:33 62.4 °F /  16.9 °C 61.2 °F /  16.2 °C 29.99 in /  1015.5 hPa ENE 1.8 mph /  2.9 km/h 3.5 mph /  5.6 km/h 96 % 0.00 in /  0 mm
07:38 62.5 °F /  16.9 °C 61.3 °F /  16.3 °C 29.94 in /  1013.8 hPa ENE 0.3 mph /  0.5 km/h 2.3 mph /  3.7 km/h 96 % 0.00 in /  0 mm
07:43 62.6 °F /  17 °C 61.4 °F /  16.3 °C 29.92 in /  1013.1 hPa ENE 1.0 mph /  1.6 km/h 4.0 mph /  6.4 km/h 96 % 0.00 in /  0 mm
07:48 62.7 °F /  17.1 °C 61.5 °F /  16.4 °C 29.93 in /  1013.4 hPa Calm     96 % 0.00 in /  0 mm
07:53 62.8 °F /  17.1 °C 61.3 °F /  16.3 °C 30.03 in /  1016.8 hPa NE 0.3 mph /  0.5 km/h 2.3 mph /  3.7 km/h 95 % 0.00 in /  0 mm
08:03 63.0 °F /  17.2 °C 61.5 °F /  16.4 °C 29.98 in /  1015.1 hPa ENE 1.0 mph /  1.6 km/h 1.2 mph /  1.9 km/h 95 % 0.00 in /  0 mm
08:08 63.1 °F /  17.3 °C 61.6 °F /  16.4 °C 29.97 in /  1014.8 hPa ENE 0.4 mph /  0.6 km/h 2.0 mph /  3.2 km/h 95 % 0.00 in /  0 mm
08:14 63.2 °F /  17.3 °C 61.7 °F /  16.5 °C 29.79 in /  1008.7 hPa NE 0.1 mph /  0.2 km/h 1.2 mph /  1.9 km/h 95 % 0.00 in /  0 mm
08:19 63.3 °F /  17.4 °C 61.8 °F /  16.6 °C 30.01 in /  1016.1 hPa NE 1.1 mph /  1.8 km/h 3.5 mph /  5.6 km/h 95 % 0.00 in /  0 mm
08:34 63.7 °F /  17.6 °C 61.9 °F /  16.6 °C 29.99 in /  1015.5 hPa Calm   1.2 mph /  1.9 km/h 94 % 0.00 in /  0 mm
08:44 64.0 °F /  17.8 °C 62.2 °F /  16.8 °C 29.89 in /  1012.1 hPa NNE 2.7 mph /  4.3 km/h 4.6 mph /  7.4 km/h 94 % 0.00 in /  0 mm
08:49 64.2 °F /  17.9 °C 62.1 °F /  16.7 °C 30.00 in /  1015.8 hPa North 4.5 mph /  7.2 km/h 6.9 mph /  11.1 km/h 93 % 0.00 in /  0 mm
08:54 64.3 °F /  17.9 °C 62.2 °F /  16.8 °C 30.03 in /  1016.8 hPa North 2.3 mph /  3.7 km/h 3.5 mph /  5.6 km/h 93 % 0.00 in /  0 mm
08:59 64.5 °F /  18.1 °C 62.1 °F /  16.7 °C 30.02 in /  1016.5 hPa NNE 1.3 mph /  2.1 km/h 3.5 mph /  5.6 km/h 92 % 0.00 in /  0 mm
09:04 64.6 °F /  18.1 °C 62.2 °F /  16.8 °C 30.03 in /  1016.8 hPa NNE 2.3 mph /  3.7 km/h 3.5 mph /  5.6 km/h 92 % 0.00 in /  0 mm
09:09 64.8 °F /  18.2 °C 62.1 °F /  16.7 °C 29.99 in /  1015.5 hPa NNE 3.1 mph /  5 km/h 8.1 mph /  13 km/h 91 % 0.00 in /  0 mm
09:14 65.0 °F /  18.3 °C 62.0 °F /  16.7 °C 30.04 in /  1017.2 hPa NE 1.5 mph /  2.4 km/h 6.9 mph /  11.1 km/h 90 % 0.00 in /  0 mm
09:20 65.2 °F /  18.4 °C 62.2 °F /  16.8 °C 30.01 in /  1016.1 hPa ENE 2.1 mph /  3.4 km/h 3.5 mph /  5.6 km/h 90 % 0.00 in /  0 mm
09:25 65.3 °F /  18.5 °C 62.0 °F /  16.7 °C 29.98 in /  1015.1 hPa ENE 2.8 mph /  4.5 km/h 4.0 mph /  6.4 km/h 89 % 0.00 in /  0 mm
09:30 65.4 °F /  18.6 °C 61.8 °F /  16.6 °C 30.03 in /  1016.8 hPa ENE 2.9 mph /  4.7 km/h 6.9 mph /  11.1 km/h 88 % 0.00 in /  0 mm
09:35 65.6 °F /  18.7 °C 61.9 °F /  16.6 °C 30.04 in /  1017.2 hPa Calm   1.2 mph /  1.9 km/h 88 % 0.00 in /  0 mm
09:40 65.8 °F /  18.8 °C 62.1 °F /  16.7 °C 29.93 in /  1013.4 hPa ENE 0.3 mph /  0.5 km/h 1.2 mph /  1.9 km/h 88 % 0.00 in /  0 mm
09:45 66.0 °F /  18.9 °C 62.3 °F /  16.8 °C 29.93 in /  1013.4 hPa ENE 0.2 mph /  0.3 km/h 1.2 mph /  1.9 km/h 88 % 0.00 in /  0 mm
09:50 66.2 °F /  19 °C 62.2 °F /  16.8 °C 29.99 in /  1015.5 hPa ENE 0.1 mph /  0.2 km/h 1.2 mph /  1.9 km/h 87 % 0.00 in /  0 mm
09:55 66.5 °F /  19.2 °C 62.5 °F /  16.9 °C 29.87 in /  1011.4 hPa NE 2.1 mph /  3.4 km/h 3.5 mph /  5.6 km/h 87 % 0.00 in /  0 mm
10:00 66.7 °F /  19.3 °C 62.4 °F /  16.9 °C 30.01 in /  1016.1 hPa NE 2.7 mph /  4.3 km/h 4.0 mph /  6.4 km/h 86 % 0.00 in /  0 mm
10:05 66.9 °F /  19.4 °C 62.9 °F /  17.2 °C 29.86 in /  1011.1 hPa NE 2.1 mph /  3.4 km/h 3.5 mph /  5.6 km/h 87 % 0.00 in /  0 mm
10:10 67.2 °F /  19.6 °C 63.2 °F /  17.3 °C 30.03 in /  1016.8 hPa NE 4.8 mph /  7.7 km/h 9.2 mph /  14.8 km/h 87 % 0.00 in /  0 mm
10:15 67.5 °F /  19.7 °C 63.2 °F /  17.3 °C 29.91 in /  1012.8 hPa NE 0.8 mph /  1.3 km/h 3.5 mph /  5.6 km/h 86 % 0.00 in /  0 mm
10:20 67.7 °F /  19.8 °C 63.4 °F /  17.4 °C 29.83 in /  1010 hPa NE 3.0 mph /  4.8 km/h 3.5 mph /  5.6 km/h 86 % 0.00 in /  0 mm
10:25 68.0 °F /  20 °C 63.7 °F /  17.6 °C 30.03 in /  1016.8 hPa NNW 1.7 mph /  2.7 km/h 3.5 mph /  5.6 km/h 86 % 0.00 in /  0 mm
10:30 68.1 °F /  20.1 °C 63.4 °F /  17.4 °C 29.96 in /  1014.4 hPa NNE 3.4 mph /  5.5 km/h 5.8 mph /  9.3 km/h 85 % 0.00 in /  0 mm
10:35 68.3 °F /  20.2 °C 63.6 °F /  17.6 °C 29.90 in /  1012.4 hPa ENE 1.9 mph /  3.1 km/h 3.5 mph /  5.6 km/h 85 % 0.00 in /  0 mm
10:40 68.5 °F /  20.3 °C 63.8 °F /  17.7 °C 29.98 in /  1015.1 hPa ENE 2.2 mph /  3.5 km/h 8.0 mph /  12.9 km/h 85 % 0.00 in /  0 mm
10:45 68.7 °F /  20.4 °C 63.3 °F /  17.4 °C 29.95 in /  1014.1 hPa NNE 4.1 mph /  6.6 km/h 9.2 mph /  14.8 km/h 83 % 0.00 in /  0 mm
10:50 69.0 °F /  20.6 °C 64.0 °F /  17.8 °C 30.03 in /  1016.8 hPa NE 3.1 mph /  5 km/h 4.6 mph /  7.4 km/h 84 % 0.00 in /  0 mm
10:55 69.2 °F /  20.7 °C 63.5 °F /  17.5 °C 30.08 in /  1018.5 hPa ENE 2.2 mph /  3.5 km/h 8.1 mph /  13 km/h 82 % 0.00 in /  0 mm
11:01 69.4 °F /  20.8 °C 63.7 °F /  17.6 °C 30.01 in /  1016.1 hPa East 5.6 mph /  9 km/h 10.4 mph /  16.7 km/h 82 % 0.00 in /  0 mm
11:05 69.5 °F /  20.8 °C 63.4 °F /  17.4 °C 29.97 in /  1014.8 hPa ENE 5.4 mph /  8.7 km/h 10.4 mph /  16.7 km/h 81 % 0.00 in /  0 mm
11:15 69.7 °F /  20.9 °C 63.6 °F /  17.6 °C 29.98 in /  1015.1 hPa ENE 2.0 mph /  3.2 km/h 3.5 mph /  5.6 km/h 81 % 0.00 in /  0 mm
11:20 69.9 °F /  21.1 °C 64.2 °F /  17.9 °C 29.97 in /  1014.8 hPa NE 2.0 mph /  3.2 km/h 4.0 mph /  6.4 km/h 82 % 0.00 in /  0 mm
11:25 69.9 °F /  21.1 °C 63.1 °F /  17.3 °C 29.96 in /  1014.4 hPa ENE 3.3 mph /  5.3 km/h 8.1 mph /  13 km/h 79 % 0.00 in /  0 mm
11:30 69.9 °F /  21.1 °C 63.4 °F /  17.4 °C 29.94 in /  1013.8 hPa ENE 2.2 mph /  3.5 km/h 6.9 mph /  11.1 km/h 80 % 0.00 in /  0 mm
11:35 69.8 °F /  21 °C 63.3 °F /  17.4 °C 29.85 in /  1010.7 hPa ENE 1.7 mph /  2.7 km/h 3.5 mph /  5.6 km/h 80 % 0.00 in /  0 mm
11:40 69.7 °F /  20.9 °C 63.3 °F /  17.4 °C 29.97 in /  1014.8 hPa ENE 2.2 mph /  3.5 km/h 4.6 mph /  7.4 km/h 80 % 0.00 in /  0 mm
11:45 70.0 °F /  21.1 °C 63.9 °F /  17.7 °C 29.95 in /  1014.1 hPa ENE 1.6 mph /  2.6 km/h 3.5 mph /  5.6 km/h 81 % 0.00 in /  0 mm
11:50 70.6 °F /  21.4 °C 64.8 °F /  18.2 °C 29.93 in /  1013.4 hPa ENE 1.4 mph /  2.3 km/h 2.3 mph /  3.7 km/h 82 % 0.00 in /  0 mm
11:55 71.5 °F /  21.9 °C 65.0 °F /  18.3 °C 30.00 in /  1015.8 hPa ENE 1.7 mph /  2.7 km/h 3.5 mph /  5.6 km/h 80 % 0.00 in /  0 mm
12:05 73.1 °F /  22.8 °C 65.8 °F /  18.8 °C 29.98 in /  1015.1 hPa NE 1.5 mph /  2.4 km/h 3.0 mph /  4.8 km/h 78 % 0.00 in /  0 mm
12:10 73.7 °F /  23.2 °C 65.3 °F /  18.5 °C 29.96 in /  1014.4 hPa NE 4.2 mph /  6.8 km/h 8.0 mph /  12.9 km/h 75 % 0.00 in /  0 mm
12:15 73.8 °F /  23.2 °C 65.0 °F /  18.3 °C 29.84 in /  1010.4 hPa ENE 2.2 mph /  3.5 km/h 3.5 mph /  5.6 km/h 74 % 0.00 in /  0 mm
12:19 73.7 °F /  23.2 °C 64.9 °F /  18.3 °C 30.02 in /  1016.5 hPa ENE 3.1 mph /  5 km/h 6.9 mph /  11.1 km/h 74 % 0.00 in /  0 mm
12:21 73.6 °F /  23.1 °C 64.8 °F /  18.2 °C 29.97 in /  1014.8 hPa ENE 2.0 mph /  3.2 km/h 2.3 mph /  3.7 km/h 74 % 0.00 in /  0 mm
12:26 73.1 °F /  22.8 °C 64.3 °F /  17.9 °C 29.99 in /  1015.5 hPa ENE 1.5 mph /  2.4 km/h 2.3 mph /  3.7 km/h 74 % 0.00 in /  0 mm
12:31 72.6 °F /  22.6 °C 63.8 °F /  17.7 °C 29.86 in /  1011.1 hPa ENE 2.1 mph /  3.4 km/h 3.5 mph /  5.6 km/h 74 % 0.00 in /  0 mm
12:36 72.2 °F /  22.3 °C 63.8 °F /  17.7 °C 29.85 in /  1010.7 hPa ENE 1.1 mph /  1.8 km/h 2.3 mph /  3.7 km/h 75 % 0.00 in /  0 mm
12:39 72.1 °F /  22.3 °C 63.7 °F /  17.6 °C 29.79 in /  1008.7 hPa ENE 1.6 mph /  2.6 km/h 3.5 mph /  5.6 km/h 75 % 0.00 in /  0 mm
12:44 72.1 °F /  22.3 °C 64.1 °F /  17.8 °C 29.73 in /  1006.7 hPa ENE 1.7 mph /  2.7 km/h 4.6 mph /  7.4 km/h 76 % 0.00 in /  0 mm
12:49 72.0 °F /  22.2 °C 64.0 °F /  17.8 °C 29.87 in /  1011.4 hPa ENE 0.8 mph /  1.3 km/h 2.3 mph /  3.7 km/h 76 % 0.00 in /  0 mm
12:54 72.0 °F /  22.2 °C 64.4 °F /  18 °C 29.91 in /  1012.8 hPa ENE 2.7 mph /  4.3 km/h 3.5 mph /  5.6 km/h 77 % 0.00 in /  0 mm
12:59 72.3 °F /  22.4 °C 64.3 °F /  17.9 °C 29.89 in /  1012.1 hPa ENE 1.8 mph /  2.9 km/h 4.6 mph /  7.4 km/h 76 % 0.00 in /  0 mm
13:05 72.5 °F /  22.5 °C 64.5 °F /  18.1 °C 29.88 in /  1011.7 hPa ENE 2.4 mph /  3.9 km/h 4.0 mph /  6.4 km/h 76 % 0.00 in /  0 mm
13:10 72.7 °F /  22.6 °C 64.7 °F /  18.2 °C 29.91 in /  1012.8 hPa ENE 3.5 mph /  5.6 km/h 3.5 mph /  5.6 km/h 76 % 0.00 in /  0 mm
13:15 73.1 °F /  22.8 °C 65.1 °F /  18.4 °C 30.00 in /  1015.8 hPa ENE 2.5 mph /  4 km/h 3.5 mph /  5.6 km/h 76 % 0.00 in /  0 mm
13:20 73.4 °F /  23 °C 65.4 °F /  18.6 °C 29.94 in /  1013.8 hPa ENE 2.5 mph /  4 km/h 4.0 mph /  6.4 km/h 76 % 0.00 in /  0 mm
13:25 73.5 °F /  23.1 °C 64.7 °F /  18.2 °C 29.93 in /  1013.4 hPa ENE 2.4 mph /  3.9 km/h 3.5 mph /  5.6 km/h 74 % 0.00 in /  0 mm
13:30 73.5 °F /  23.1 °C 64.3 °F /  17.9 °C 29.88 in /  1011.7 hPa NE 3.5 mph /  5.6 km/h 9.2 mph /  14.8 km/h 73 % 0.00 in /  0 mm
13:35 73.6 °F /  23.1 °C 64.8 °F /  18.2 °C 29.83 in /  1010 hPa ENE 3.0 mph /  4.8 km/h 5.8 mph /  9.3 km/h 74 % 0.00 in /  0 mm
13:40 73.5 °F /  23.1 °C 64.3 °F /  17.9 °C 29.96 in /  1014.4 hPa East 3.3 mph /  5.3 km/h 6.9 mph /  11.1 km/h 73 % 0.00 in /  0 mm
13:44 73.5 °F /  23.1 °C 65.1 °F /  18.4 °C 29.88 in /  1011.7 hPa ENE 3.1 mph /  5 km/h 4.0 mph /  6.4 km/h 75 % 0.00 in /  0 mm
13:49 73.3 °F /  22.9 °C 64.9 °F /  18.3 °C 29.59 in /  1001.9 hPa NE 2.1 mph /  3.4 km/h 4.6 mph /  7.4 km/h 75 % 0.00 in /  0 mm
13:54 73.0 °F /  22.8 °C 64.6 °F /  18.1 °C 29.76 in /  1007.7 hPa ENE 1.5 mph /  2.4 km/h 6.9 mph /  11.1 km/h 75 % 0.00 in /  0 mm
13:59 72.8 °F /  22.7 °C 64.8 °F /  18.2 °C 29.81 in /  1009.4 hPa NNE 4.8 mph /  7.7 km/h 8.1 mph /  13 km/h 76 % 0.00 in /  0 mm
14:04 72.9 °F /  22.7 °C 65.3 °F /  18.5 °C 29.83 in /  1010 hPa ENE 3.9 mph /  6.3 km/h 6.9 mph /  11.1 km/h 77 % 0.00 in /  0 mm
14:06 73.1 °F /  22.8 °C 65.8 °F /  18.8 °C 29.91 in /  1012.8 hPa ENE 3.2 mph /  5.1 km/h 5.8 mph /  9.3 km/h 78 % 0.00 in /  0 mm
14:11 73.4 °F /  23 °C 65.4 °F /  18.6 °C 29.80 in /  1009 hPa NE 2.6 mph /  4.2 km/h 4.6 mph /  7.4 km/h 76 % 0.00 in /  0 mm
14:16 73.5 °F /  23.1 °C 64.7 °F /  18.2 °C 29.93 in /  1013.4 hPa East 5.0 mph /  8 km/h 9.2 mph /  14.8 km/h 74 % 0.00 in /  0 mm
14:21 73.4 °F /  23 °C 65.0 °F /  18.3 °C 30.09 in /  1018.8 hPa ENE 2.2 mph /  3.5 km/h 3.5 mph /  5.6 km/h 75 % 0.00 in /  0 mm
14:26 73.5 °F /  23.1 °C 65.1 °F /  18.4 °C 30.09 in /  1018.8 hPa ENE 2.3 mph /  3.7 km/h 3.5 mph /  5.6 km/h 75 % 0.00 in /  0 mm
14:31 73.5 °F /  23.1 °C 64.3 °F /  17.9 °C 30.09 in /  1018.8 hPa ENE 3.8 mph /  6.1 km/h 4.0 mph /  6.4 km/h 73 % 0.00 in /  0 mm
14:41 73.2 °F /  22.9 °C 64.8 °F /  18.2 °C 30.06 in /  1017.8 hPa ENE 2.5 mph /  4 km/h 3.5 mph /  5.6 km/h 75 % 0.00 in /  0 mm
14:46 73.0 °F /  22.8 °C 64.2 °F /  17.9 °C 30.05 in /  1017.5 hPa ENE 2.7 mph /  4.3 km/h 4.6 mph /  7.4 km/h 74 % 0.00 in /  0 mm
14:51 72.9 °F /  22.7 °C 63.7 °F /  17.6 °C 30.04 in /  1017.2 hPa ENE 3.9 mph /  6.3 km/h 6.9 mph /  11.1 km/h 73 % 0.00 in /  0 mm
14:56 72.6 °F /  22.6 °C 63.8 °F /  17.7 °C 30.05 in /  1017.5 hPa ENE 3.3 mph /  5.3 km/h 4.0 mph /  6.4 km/h 74 % 0.00 in /  0 mm
15:01 72.4 °F /  22.4 °C 64.0 °F /  17.8 °C 30.05 in /  1017.5 hPa East 2.9 mph /  4.7 km/h 5.8 mph /  9.3 km/h 75 % 0.00 in /  0 mm
15:06 72.2 °F /  22.3 °C 63.8 °F /  17.7 °C 30.04 in /  1017.2 hPa ENE 2.3 mph /  3.7 km/h 3.5 mph /  5.6 km/h 75 % 0.00 in /  0 mm
15:11 72.0 °F /  22.2 °C 63.6 °F /  17.6 °C 30.05 in /  1017.5 hPa East 2.5 mph /  4 km/h 4.6 mph /  7.4 km/h 75 % 0.00 in /  0 mm
15:17 71.7 °F /  22.1 °C 63.7 °F /  17.6 °C 30.04 in /  1017.2 hPa East 2.5 mph /  4 km/h 4.6 mph /  7.4 km/h 76 % 0.00 in /  0 mm
15:22 71.6 °F /  22 °C 64.0 °F /  17.8 °C 30.03 in /  1016.8 hPa East 2.3 mph /  3.7 km/h 3.5 mph /  5.6 km/h 77 % 0.00 in /  0 mm
15:27 71.8 °F /  22.1 °C 64.9 °F /  18.3 °C 30.04 in /  1017.2 hPa ENE 2.5 mph /  4 km/h 3.5 mph /  5.6 km/h 79 % 0.00 in /  0 mm
15:32 72.0 °F /  22.2 °C 64.8 °F /  18.2 °C 30.04 in /  1017.2 hPa ENE 3.4 mph /  5.5 km/h 6.9 mph /  11.1 km/h 78 % 0.00 in /  0 mm
15:37 72.1 °F /  22.3 °C 64.9 °F /  18.3 °C 30.03 in /  1016.8 hPa ENE 2.5 mph /  4 km/h 3.5 mph /  5.6 km/h 78 % 0.00 in /  0 mm
15:42 72.1 °F /  22.3 °C 64.5 °F /  18.1 °C 30.03 in /  1016.8 hPa ENE 2.9 mph /  4.7 km/h 4.6 mph /  7.4 km/h 77 % 0.00 in /  0 mm
15:47 72.1 °F /  22.3 °C 64.5 °F /  18.1 °C 30.02 in /  1016.5 hPa East 3.4 mph /  5.5 km/h 6.0 mph /  9.7 km/h 77 % 0.00 in /  0 mm
15:48 72.1 °F /  22.3 °C 64.5 °F /  18.1 °C 30.03 in /  1016.8 hPa East 3.1 mph /  5 km/h 5.8 mph /  9.3 km/h 77 % 0.00 in /  0 mm
15:53 72.0 °F /  22.2 °C 64.8 °F /  18.2 °C 30.03 in /  1016.8 hPa ENE 2.5 mph /  4 km/h 3.5 mph /  5.6 km/h 78 % 0.00 in /  0 mm
16:03 71.5 °F /  21.9 °C 64.6 °F /  18.1 °C 30.03 in /  1016.8 hPa ENE 2.1 mph /  3.4 km/h 4.6 mph /  7.4 km/h 79 % 0.00 in /  0 mm
16:08 71.3 °F /  21.8 °C 64.4 °F /  18 °C 30.07 in /  1018.2 hPa East 2.5 mph /  4 km/h 4.6 mph /  7.4 km/h 79 % 0.00 in /  0 mm
16:13 71.2 °F /  21.8 °C 64.7 °F /  18.2 °C 30.03 in /  1016.8 hPa East 2.4 mph /  3.9 km/h 3.5 mph /  5.6 km/h 80 % 0.00 in /  0 mm
16:19 71.3 °F /  21.8 °C 65.2 °F /  18.4 °C 30.03 in /  1016.8 hPa ENE 1.9 mph /  3.1 km/h 3.5 mph /  5.6 km/h 81 % 0.00 in /  0 mm
16:24 71.5 °F /  21.9 °C 65.4 °F /  18.6 °C 30.02 in /  1016.5 hPa ENE 1.3 mph /  2.1 km/h 3.5 mph /  5.6 km/h 81 % 0.00 in /  0 mm
16:29 71.5 °F /  21.9 °C 65.4 °F /  18.6 °C 30.02 in /  1016.5 hPa ENE 1.4 mph /  2.3 km/h 3.5 mph /  5.6 km/h 81 % 0.00 in /  0 mm
16:34 71.4 °F /  21.9 °C 65.3 °F /  18.5 °C 30.02 in /  1016.5 hPa ENE 1.7 mph /  2.7 km/h 3.5 mph /  5.6 km/h 81 % 0.00 in /  0 mm
16:39 71.3 °F /  21.8 °C 65.2 °F /  18.4 °C 30.03 in /  1016.8 hPa ENE 2.0 mph /  3.2 km/h 3.5 mph /  5.6 km/h 81 % 0.00 in /  0 mm
16:44 71.2 °F /  21.8 °C 65.1 °F /  18.4 °C 30.02 in /  1016.5 hPa ENE 1.7 mph /  2.7 km/h 3.5 mph /  5.6 km/h 81 % 0.00 in /  0 mm
16:49 71.1 °F /  21.7 °C 65.0 °F /  18.3 °C 30.02 in /  1016.5 hPa ENE 1.8 mph /  2.9 km/h 2.3 mph /  3.7 km/h 81 % 0.00 in /  0 mm
16:54 71.1 °F /  21.7 °C 65.0 °F /  18.3 °C 30.02 in /  1016.5 hPa ENE 1.1 mph /  1.8 km/h 2.3 mph /  3.7 km/h 81 % 0.00 in /  0 mm
16:59 71.0 °F /  21.7 °C 65.2 °F /  18.4 °C 30.07 in /  1018.2 hPa ENE 1.1 mph /  1.8 km/h 2.3 mph /  3.7 km/h 82 % 0.00 in /  0 mm
17:04 71.0 °F /  21.7 °C 65.6 °F /  18.7 °C 30.02 in /  1016.5 hPa ENE 0.8 mph /  1.3 km/h 2.3 mph /  3.7 km/h 83 % 0.00 in /  0 mm
17:09 71.0 °F /  21.7 °C 65.2 °F /  18.4 °C 30.03 in /  1016.8 hPa ENE 0.9 mph /  1.4 km/h 1.2 mph /  1.9 km/h 82 % 0.00 in /  0 mm
17:14 70.9 °F /  21.6 °C 65.1 °F /  18.4 °C 30.03 in /  1016.8 hPa ENE 0.5 mph /  0.8 km/h 1.2 mph /  1.9 km/h 82 % 0.00 in /  0 mm
17:19 70.8 °F /  21.6 °C 65.0 °F /  18.3 °C 30.04 in /  1017.2 hPa ENE 0.3 mph /  0.5 km/h 2.3 mph /  3.7 km/h 82 % 0.00 in /  0 mm
17:24 70.7 °F /  21.5 °C 65.3 °F /  18.5 °C 30.04 in /  1017.2 hPa ENE 0.1 mph /  0.2 km/h 1.2 mph /  1.9 km/h 83 % 0.00 in /  0 mm
17:29 70.6 °F /  21.4 °C 64.8 °F /  18.2 °C 30.05 in /  1017.5 hPa ENE 0.2 mph /  0.3 km/h 1.2 mph /  1.9 km/h 82 % 0.00 in /  0 mm
17:34 70.6 °F /  21.4 °C 65.2 °F /  18.4 °C 30.05 in /  1017.5 hPa ENE 1.1 mph /  1.8 km/h 3.5 mph /  5.6 km/h 83 % 0.00 in /  0 mm
17:39 70.4 °F /  21.3 °C 64.6 °F /  18.1 °C 30.05 in /  1017.5 hPa ENE 2.8 mph /  4.5 km/h 4.6 mph /  7.4 km/h 82 % 0.00 in /  0 mm
17:44 70.4 °F /  21.3 °C 64.6 °F /  18.1 °C 30.11 in /  1019.5 hPa ENE 1.5 mph /  2.4 km/h 3.5 mph /  5.6 km/h 82 % 0.00 in /  0 mm
17:49 70.3 °F /  21.3 °C 64.9 °F /  18.3 °C 30.10 in /  1019.2 hPa ENE 0.4 mph /  0.6 km/h 3.5 mph /  5.6 km/h 83 % 0.00 in /  0 mm
17:54 70.2 °F /  21.2 °C 64.8 °F /  18.2 °C 30.10 in /  1019.2 hPa ENE 1.7 mph /  2.7 km/h 3.5 mph /  5.6 km/h 83 % 0.00 in /  0 mm
17:59 70.1 °F /  21.2 °C 65.0 °F /  18.3 °C 30.07 in /  1018.2 hPa ENE 0.5 mph /  0.8 km/h 1.2 mph /  1.9 km/h 84 % 0.00 in /  0 mm
18:00 70.1 °F /  21.2 °C 65.0 °F /  18.3 °C 30.08 in /  1018.5 hPa ENE 0.4 mph /  0.6 km/h 1.2 mph /  1.9 km/h 84 % 0.00 in /  0 mm
18:05 70.1 °F /  21.2 °C 65.4 °F /  18.6 °C 30.10 in /  1019.2 hPa Calm   1.2 mph /  1.9 km/h 85 % 0.00 in /  0 mm
18:10 70.0 °F /  21.1 °C 65.3 °F /  18.5 °C 30.07 in /  1018.2 hPa ENE 0.2 mph /  0.3 km/h 1.2 mph /  1.9 km/h 85 % 0.00 in /  0 mm
18:15 69.9 °F /  21.1 °C 64.8 °F /  18.2 °C 30.07 in /  1018.2 hPa ENE 0.1 mph /  0.2 km/h 1.2 mph /  1.9 km/h 84 % 0.00 in /  0 mm
18:20 69.7 °F /  20.9 °C 64.6 °F /  18.1 °C 30.11 in /  1019.5 hPa Calm     84 % 0.00 in /  0 mm
18:25 69.6 °F /  20.9 °C 64.5 °F /  18.1 °C 30.13 in /  1020.2 hPa Calm   1.2 mph /  1.9 km/h 84 % 0.00 in /  0 mm
18:30 69.5 °F /  20.8 °C 64.5 °F /  18.1 °C 30.08 in /  1018.5 hPa Calm   1.2 mph /  1.9 km/h 84 % 0.00 in /  0 mm
18:35 69.5 °F /  20.8 °C 64.8 °F /  18.2 °C 30.08 in /  1018.5 hPa ENE 0.1 mph /  0.2 km/h 1.2 mph /  1.9 km/h 85 % 0.00 in /  0 mm
18:40 69.4 °F /  20.8 °C 64.4 °F /  18 °C 30.08 in /  1018.5 hPa Calm     84 % 0.00 in /  0 mm
18:50 69.2 °F /  20.7 °C 63.5 °F /  17.5 °C 30.08 in /  1018.5 hPa SE 0.4 mph /  0.6 km/h 1.2 mph /  1.9 km/h 82 % 0.00 in /  0 mm
18:51 69.2 °F /  20.7 °C 63.5 °F /  17.5 °C 30.08 in /  1018.5 hPa SE 0.2 mph /  0.3 km/h 1.2 mph /  1.9 km/h 82 % 0.00 in /  0 mm
18:56 69.0 °F /  20.6 °C 63.3 °F /  17.4 °C 30.08 in /  1018.5 hPa Calm   2.0 mph /  3.2 km/h 82 % 0.00 in /  0 mm
19:01 68.9 °F /  20.5 °C 63.9 °F /  17.7 °C 30.08 in /  1018.5 hPa SE 0.2 mph /  0.3 km/h 1.2 mph /  1.9 km/h 84 % 0.00 in /  0 mm
19:06 68.8 °F /  20.4 °C 64.1 °F /  17.8 °C 30.08 in /  1018.5 hPa Calm   2.0 mph /  3.2 km/h 85 % 0.01 in /  0.25 mm
19:11 68.6 °F /  20.3 °C 64.3 °F /  17.9 °C 30.13 in /  1020.2 hPa SE 1.0 mph /  1.6 km/h 6.0 mph /  9.7 km/h 86 % 0.00 in /  0 mm
19:16 68.4 °F /  20.2 °C 64.0 °F /  17.8 °C 30.09 in /  1018.8 hPa ESE 1.0 mph /  1.6 km/h 2.0 mph /  3.2 km/h 86 % 0.00 in /  0 mm
19:21 67.9 °F /  19.9 °C 63.9 °F /  17.7 °C 30.12 in /  1019.9 hPa ESE 1.0 mph /  1.6 km/h 2.0 mph /  3.2 km/h 87 % 0.00 in /  0 mm
19:26 67.6 °F /  19.8 °C 63.9 °F /  17.7 °C 30.14 in /  1020.5 hPa ESE 1.0 mph /  1.6 km/h 3.0 mph /  4.8 km/h 88 % 0.00 in /  0 mm
19:31 67.1 °F /  19.5 °C 63.1 °F /  17.3 °C 30.10 in /  1019.2 hPa ESE 1.0 mph /  1.6 km/h 4.0 mph /  6.4 km/h 87 % 0.00 in /  0 mm
19:36 66.7 °F /  19.3 °C 62.7 °F /  17.1 °C 30.09 in /  1018.8 hPa East 1.0 mph /  1.6 km/h 3.0 mph /  4.8 km/h 87 % 0.00 in /  0 mm
19:41 66.4 °F /  19.1 °C 62.7 °F /  17.1 °C 30.09 in /  1018.8 hPa East 1.0 mph /  1.6 km/h 3.0 mph /  4.8 km/h 88 % 0.00 in /  0 mm
19:46 66.1 °F /  18.9 °C 62.4 °F /  16.9 °C 30.08 in /  1018.5 hPa East 1.0 mph /  1.6 km/h 2.0 mph /  3.2 km/h 88 % 0.00 in /  0 mm
19:51 65.7 °F /  18.7 °C 62.4 °F /  16.9 °C 30.13 in /  1020.2 hPa East 1.0 mph /  1.6 km/h 3.0 mph /  4.8 km/h 89 % 0.00 in /  0 mm
19:56 65.5 °F /  18.6 °C 62.2 °F /  16.8 °C 30.13 in /  1020.2 hPa ESE 1.0 mph /  1.6 km/h 5.0 mph /  8 km/h 89 % 0.00 in /  0 mm
20:01 65.2 °F /  18.4 °C 61.9 °F /  16.6 °C 30.08 in /  1018.5 hPa SE 1.6 mph /  2.6 km/h 3.5 mph /  5.6 km/h 89 % 0.03 in /  0.76 mm
20:06 65.0 °F /  18.3 °C 61.7 °F /  16.5 °C 30.09 in /  1018.8 hPa ESE 1.8 mph /  2.9 km/h 6.9 mph /  11.1 km/h 89 % 0.03 in /  0.76 mm
20:11 64.8 °F /  18.2 °C 61.5 °F /  16.4 °C 30.09 in /  1018.8 hPa ESE 0.4 mph /  0.6 km/h 3.5 mph /  5.6 km/h 89 % 0.02 in /  0.51 mm
20:16 64.6 °F /  18.1 °C 61.6 °F /  16.4 °C 30.14 in /  1020.5 hPa ESE 0.3 mph /  0.5 km/h 3.5 mph /  5.6 km/h 90 % 0.01 in /  0.25 mm
20:21 64.4 °F /  18 °C 61.4 °F /  16.3 °C 30.14 in /  1020.5 hPa ESE 2.3 mph /  3.7 km/h 3.5 mph /  5.6 km/h 90 % 0.02 in /  0.51 mm
20:26 64.0 °F /  17.8 °C 61.0 °F /  16.1 °C 30.15 in /  1020.9 hPa East 1.5 mph /  2.4 km/h 3.5 mph /  5.6 km/h 90 % 0.02 in /  0.51 mm
20:31 63.9 °F /  17.7 °C 60.9 °F /  16.1 °C 30.12 in /  1019.9 hPa East 1.3 mph /  2.1 km/h 3.5 mph /  5.6 km/h 90 % 0.02 in /  0.51 mm
20:36 63.7 °F /  17.6 °C 60.7 °F /  15.9 °C 30.10 in /  1019.2 hPa ESE 1.6 mph /  2.6 km/h 3.5 mph /  5.6 km/h 90 % 0.01 in /  0.25 mm
20:41 63.6 °F /  17.6 °C 60.6 °F /  15.9 °C 30.10 in /  1019.2 hPa ESE 1.0 mph /  1.6 km/h 3.5 mph /  5.6 km/h 90 % 0.01 in /  0.25 mm
20:46 63.5 °F /  17.5 °C 60.5 °F /  15.8 °C 30.11 in /  1019.5 hPa East 2.1 mph /  3.4 km/h 3.5 mph /  5.6 km/h 90 % 0.01 in /  0.25 mm
20:51 63.3 °F /  17.4 °C 60.3 °F /  15.7 °C 30.09 in /  1018.8 hPa East 2.9 mph /  4.7 km/h 5.0 mph /  8 km/h 90 % 0.01 in /  0.25 mm
20:56 63.1 °F /  17.3 °C 60.1 °F /  15.6 °C 30.10 in /  1019.2 hPa East 2.5 mph /  4 km/h 4.6 mph /  7.4 km/h 90 % 0.01 in /  0.25 mm
21:01 63.0 °F /  17.2 °C 59.7 °F /  15.4 °C 30.11 in /  1019.5 hPa East 1.9 mph /  3.1 km/h 3.5 mph /  5.6 km/h 89 % 0.01 in /  0.25 mm
21:06 62.8 °F /  17.1 °C 59.2 °F /  15.1 °C 30.11 in /  1019.5 hPa East 2.2 mph /  3.5 km/h 4.6 mph /  7.4 km/h 88 % 0.01 in /  0.25 mm
21:11 62.6 °F /  17 °C 58.7 °F /  14.8 °C 30.11 in /  1019.5 hPa East 3.0 mph /  4.8 km/h 5.0 mph /  8 km/h 87 % 0.01 in /  0.25 mm
21:16 62.4 °F /  16.9 °C 58.2 °F /  14.6 °C 30.11 in /  1019.5 hPa East 2.0 mph /  3.2 km/h 4.6 mph /  7.4 km/h 86 % 0.01 in /  0.25 mm
21:21 62.4 °F /  16.9 °C 58.2 °F /  14.6 °C 30.11 in /  1019.5 hPa ESE 3.5 mph /  5.6 km/h 5.8 mph /  9.3 km/h 86 % 0.00 in /  0 mm
21:26 62.3 °F /  16.8 °C 58.1 °F /  14.5 °C 30.16 in /  1021.2 hPa ESE 2.0 mph /  3.2 km/h 4.6 mph /  7.4 km/h 86 % 0.00 in /  0 mm
21:31 62.3 °F /  16.8 °C 58.1 °F /  14.5 °C 30.16 in /  1021.2 hPa ESE 3.0 mph /  4.8 km/h 9.2 mph /  14.8 km/h 86 % 0.00 in /  0 mm
21:36 62.3 °F /  16.8 °C 57.7 °F /  14.3 °C 30.16 in /  1021.2 hPa ESE 3.2 mph /  5.1 km/h 5.8 mph /  9.3 km/h 85 % 0.00 in /  0 mm
21:41 62.2 °F /  16.8 °C 56.6 °F /  13.7 °C 30.16 in /  1021.2 hPa East 4.7 mph /  7.6 km/h 10.4 mph /  16.7 km/h 82 % 0.00 in /  0 mm
21:46 62.2 °F /  16.8 °C 56.6 °F /  13.7 °C 30.11 in /  1019.5 hPa East 3.3 mph /  5.3 km/h 5.8 mph /  9.3 km/h 82 % 0.00 in /  0 mm
21:56 62.2 °F /  16.8 °C 57.0 °F /  13.9 °C 30.12 in /  1019.9 hPa East 3.4 mph /  5.5 km/h 4.6 mph /  7.4 km/h 83 % 0.00 in /  0 mm
22:01 62.2 °F /  16.8 °C 56.6 °F /  13.7 °C 30.12 in /  1019.9 hPa East 3.4 mph /  5.5 km/h 5.8 mph /  9.3 km/h 82 % 0.00 in /  0 mm
22:06 62.2 °F /  16.8 °C 56.6 °F /  13.7 °C 30.12 in /  1019.9 hPa ESE 3.0 mph /  4.8 km/h 4.6 mph /  7.4 km/h 82 % 0.00 in /  0 mm
22:11 62.2 °F /  16.8 °C 56.6 °F /  13.7 °C 30.12 in /  1019.9 hPa East 2.9 mph /  4.7 km/h 5.0 mph /  8 km/h 82 % 0.00 in /  0 mm
22:16 62.1 °F /  16.7 °C 56.5 °F /  13.6 °C 30.11 in /  1019.5 hPa East 3.4 mph /  5.5 km/h 4.6 mph /  7.4 km/h 82 % 0.00 in /  0 mm
22:21 62.1 °F /  16.7 °C 55.9 °F /  13.3 °C 30.11 in /  1019.5 hPa East 2.4 mph /  3.9 km/h 3.5 mph /  5.6 km/h 80 % 0.00 in /  0 mm
22:26 62.0 °F /  16.7 °C 55.8 °F /  13.2 °C 30.11 in /  1019.5 hPa East 3.1 mph /  5 km/h 5.8 mph /  9.3 km/h 80 % 0.00 in /  0 mm
22:31 62.0 °F /  16.7 °C 55.8 °F /  13.2 °C 30.11 in /  1019.5 hPa East 3.4 mph /  5.5 km/h 5.0 mph /  8 km/h 80 % 0.00 in /  0 mm
22:41 62.0 °F /  16.7 °C 55.8 °F /  13.2 °C 30.11 in /  1019.5 hPa East 3.0 mph /  4.8 km/h 3.5 mph /  5.6 km/h 80 % 0.00 in /  0 mm
22:46 62.0 °F /  16.7 °C 56.1 °F /  13.4 °C 30.11 in /  1019.5 hPa East 3.5 mph /  5.6 km/h 5.0 mph /  8 km/h 81 % 0.00 in /  0 mm
22:51 62.0 °F /  16.7 °C 56.1 °F /  13.4 °C 30.10 in /  1019.2 hPa East 4.9 mph /  7.9 km/h 7.0 mph /  11.3 km/h 81 % 0.00 in /  0 mm
22:56 62.0 °F /  16.7 °C 55.8 °F /  13.2 °C 30.11 in /  1019.5 hPa East 3.9 mph /  6.3 km/h 6.9 mph /  11.1 km/h 80 % 0.00 in /  0 mm
23:01 62.0 °F /  16.7 °C 56.1 °F /  13.4 °C 30.11 in /  1019.5 hPa East 4.8 mph /  7.7 km/h 6.0 mph /  9.7 km/h 81 % 0.00 in /  0 mm
23:06 62.0 °F /  16.7 °C 56.1 °F /  13.4 °C 30.13 in /  1020.2 hPa East 3.2 mph /  5.1 km/h 5.8 mph /  9.3 km/h 81 % 0.00 in /  0 mm
23:12 62.0 °F /  16.7 °C 55.8 °F /  13.2 °C 30.11 in /  1019.5 hPa ESE 4.2 mph /  6.8 km/h 6.9 mph /  11.1 km/h 80 % 0.00 in /  0 mm
23:17 62.0 °F /  16.7 °C 55.4 °F /  13 °C 30.12 in /  1019.9 hPa East 3.8 mph /  6.1 km/h 5.8 mph /  9.3 km/h 79 % 0.00 in /  0 mm
23:22 62.0 °F /  16.7 °C 55.4 °F /  13 °C 30.10 in /  1019.2 hPa SE 2.0 mph /  3.2 km/h 4.6 mph /  7.4 km/h 79 % 0.00 in /  0 mm
23:26 62.0 °F /  16.7 °C 55.1 °F /  12.8 °C 30.11 in /  1019.5 hPa East 3.2 mph /  5.1 km/h 5.8 mph /  9.3 km/h 78 % 0.00 in /  0 mm
23:31 61.9 °F /  16.6 °C 55.0 °F /  12.8 °C 30.10 in /  1019.2 hPa East 2.2 mph /  3.5 km/h 3.5 mph /  5.6 km/h 78 % 0.00 in /  0 mm
23:36 61.8 °F /  16.6 °C 54.9 °F /  12.7 °C 30.10 in /  1019.2 hPa East 1.8 mph /  2.9 km/h 3.5 mph /  5.6 km/h 78 % 0.00 in /  0 mm
23:41 61.8 °F /  16.6 °C 54.9 °F /  12.7 °C 30.11 in /  1019.5 hPa East 1.5 mph /  2.4 km/h 5.8 mph /  9.3 km/h 78 % 0.00 in /  0 mm
23:46 61.7 °F /  16.5 °C 55.1 °F /  12.8 °C 30.12 in /  1019.9 hPa ESE 1.6 mph /  2.6 km/h 3.5 mph /  5.6 km/h 79 % 0.00 in /  0 mm
23:51 61.7 °F /  16.5 °C 55.1 °F /  12.8 °C 30.12 in /  1019.9 hPa East 1.6 mph /  2.6 km/h 3.5 mph /  5.6 km/h 79 % 0.00 in /  0 mm
23:56 61.7 °F /  16.5 °C 55.5 °F /  13.1 °C 30.13 in /  1020.2 hPa ENE 1.5 mph /  2.4 km/h 2.3 mph /  3.7 km/h 80 % 0.00 in /  0 mm
Crab Meadow Weather
Compliments of Weather Underground - 3 mb

Script developed by  Jim McMurry - jmcmurry@mwt.net Adapted for the template by  Wim van der Kuil - Leuven-Template.eu

Hurricanes: In one day a hurricane can release enough energy to supply all of the nation's electrical needs for about six months.